Weather in Gonaives

Haiti     19°26′44″N   72°41′21″W
temp.,
°C
wind,
m/s
gust,
m/s
humid.,
%
clouds,
%
prec.,
mm/h
press.,
hPa
HPBL,
m
8 may, sat
sat823:00+24ne227781 0.3 101788
02:00+22ne22855 2.9 101654
05:00+22ene118133 1.6 101631
08:00+25se126971 2.1 1017332
11:00+28sw435616 0.0 10171180
14:00+29wsw435520 0.0 1015853
17:00+27nw346447 3.6 1015376
20:00+25ne227138 9.9 101671
9 may, sun
sun923:00+24ne348216 2.2 1018158
02:00+23ne348467 2.2 1017128
05:00+22ne228313 0.0 101680
08:00+24ene12735 0.0 1018273
11:00+28wsw22567 0.0 10181131
14:00+29wsw54563 0.0 1015629
17:00+28wnw336331 1.3 1015499
20:00+26ene337114 1.7 1017112
10 may, mon
mon1023:00+24ne348027 0.0 1018186
02:00+23ne33810 0.1 1016101
05:00+23ne22810 0.0 101667
08:00+25ne22710 0.0 1017255
11:00+30sw23460 0.0 10161319
14:00+30wsw545231 0.0 1015882
17:00+27w226596 0.3 1015367
20:00+26ese337216 1.9 1017167
11 may, tue
tue1123:00+24ne23789 0.4 101776
02:00+24ne2272100 0.4 101637
05:00+24e1172100 0.0 101647
08:00+26e1164100 0.0 1017185
11:00+30ssw2345100 0.0 10171340
14:00+30wsw4348100 0.0 1016813
17:00+29nw5552100 0.0 1015785
20:00+26ne2270100 0.9 101643
12 may, wed
wed1223:00+26ene2270100 0.1 101769
02:00+25ne226896 0.1 101655
05:00+24ene2269100 0.0 101550
08:00+26ne1164100 0.0 1017121
11:00+29nnw1250100 0.0 1017832
14:00+31wsw3344100 0.0 10151150
17:00+28wsw3360100 0.0 1015447
20:00+26wnw117043 0.1 101645